Location: Hungerford
(51.4167°N, 1.5167°W)
Time: 22:18:18
(UTC+00:00)

Meteor 2-5 Rocket - Pass Details

Date: 18 September 2020
Orbit: 833 x 912 km, 81.2° (Epoch: 20 October)

Event Time Altitude Azimuth Distance (km) Brightness Sun altitude
Rises 20:19:55 0° 347° (NNW) 3,412 7.5 -19.8°
Reaches altitude 10° 20:22:19 10° 349° (NNW) 2,480 6.7 -20.1°
Maximum altitude 20:27:57 81° 76° (ENE) 873 3.6 -20.8°
Enters shadow 20:30:33 34° 161° (SSE) 1,384 4.4 -21.2°
